Radiation Dose at Monitoring Post of Fukushima Daini Nuclear Power Station
Date,Time,MP-1(microSv/h),MP-2(microSv/h),MP-3(microSv/h),MP-4(microSv/h),MP-5(microSv/h),MP-6(microSv/h),MP-7(microSv/h),Wind Direction,Wind Velocity(m/s),Rain
2022/05/22,00:00,0.153,0.142,0.221,0.215,0.217,0.120,0.077,south-southwest,1.3,No
2022/05/22,00:10,0.152,0.142,0.223,0.216,0.216,0.121,0.076,south,1.3,No
2022/05/22,00:20,0.151,0.141,0.221,0.214,0.217,0.120,0.077,south,0.9,No
2022/05/22,00:30,0.152,0.141,0.222,0.217,0.214,0.122,0.077,south-southwest,1.1,No
2022/05/22,00:40,0.151,0.142,0.221,0.215,0.217,0.121,0.077,-,CALM,No
2022/05/22,00:50,0.152,0.141,0.221,0.215,0.215,0.122,0.077,-,CALM,No
2022/05/22,01:00,0.153,0.142,0.222,0.215,0.216,0.120,0.077,-,CALM,No
2022/05/22,01:10,0.152,0.141,0.222,0.216,0.215,0.121,0.078,-,CALM,No
2022/05/22,01:20,0.152,0.143,0.221,0.214,0.216,0.121,0.077,east-northeast,0.7,No
2022/05/22,01:30,0.153,0.141,0.223,0.216,0.217,0.121,0.078,-,CALM,No
2022/05/22,01:40,0.151,0.142,0.221,0.215,0.218,0.121,0.077,north-northeast,0.6,No
2022/05/22,01:50,0.153,0.142,0.223,0.217,0.217,0.122,0.077,-,CALM,Yes
2022/05/22,02:00,0.152,0.143,0.221,0.216,0.216,0.122,0.078,northwest,0.7,Yes
2022/05/22,02:10,0.153,0.142,0.223,0.217,0.217,0.122,0.078,north-northwest,0.8,Yes
2022/05/22,02:20,0.152,0.143,0.221,0.216,0.216,0.122,0.078,northwest,1.8,Yes
2022/05/22,02:30,0.153,0.142,0.223,0.217,0.217,0.122,0.078,north-northwest,3.2,Yes
2022/05/22,02:40,0.152,0.143,0.222,0.216,0.216,0.122,0.078,north,4.5,Yes
2022/05/22,02:50,0.154,0.143,0.223,0.217,0.218,0.123,0.079,north,4.8,Yes
2022/05/22,03:00,0.153,0.142,0.221,0.214,0.216,0.123,0.078,north,5.3,Yes
2022/05/22,03:10,0.153,0.142,0.221,0.216,0.217,0.122,0.080,north,5.1,Yes
2022/05/22,03:20,0.152,0.142,0.220,0.215,0.216,0.123,0.079,north-northwest,5.0,Yes
2022/05/22,03:30,0.153,0.143,0.220,0.216,0.218,0.122,0.080,north-northwest,4.5,Yes
2022/05/22,03:40,0.152,0.142,0.220,0.215,0.215,0.122,0.079,north-northwest,3.4,Yes
2022/05/22,03:50,0.151,0.142,0.218,0.215,0.216,0.123,0.081,northeast,2.3,Yes
2022/05/22,04:00,0.150,0.140,0.212,0.215,0.215,0.124,0.079,east-northeast,0.9,Yes
2022/05/22,04:10,0.150,0.140,0.214,0.214,0.216,0.123,0.081,northwest,2.2,Yes
2022/05/22,04:20,0.151,0.141,0.216,0.214,0.216,0.123,0.079,northwest,2.4,Yes
2022/05/22,04:30,0.150,0.140,0.215,0.213,0.217,0.123,0.079,northwest,3.0,Yes
2022/05/22,04:40,0.148,0.141,0.215,0.214,0.214,0.122,0.078,northwest,3.2,Yes
2022/05/22,04:50,0.149,0.140,0.214,0.211,0.214,0.121,0.078,north,3.4,Yes
2022/05/22,05:00,0.149,0.140,0.215,0.213,0.215,0.121,0.078,north-northwest,2.6,Yes
2022/05/22,05:10,0.149,0.140,0.215,0.211,0.215,0.122,0.078,north,3.3,Yes
2022/05/22,05:20,0.149,0.140,0.214,0.213,0.214,0.121,0.078,northeast,1.4,Yes
2022/05/22,05:30,0.148,0.140,0.214,0.211,0.214,0.120,0.077,northeast,1.8,Yes
2022/05/22,05:40,0.149,0.139,0.213,0.210,0.214,0.119,0.078,north-northeast,1.6,Yes
2022/05/22,05:50,0.148,0.139,0.215,0.211,0.214,0.120,0.076,north,1.4,Yes
2022/05/22,06:00,0.147,0.139,0.212,0.211,0.214,0.119,0.077,north-northeast,1.6,Yes
2022/05/22,06:10,0.147,0.139,0.213,0.209,0.213,0.118,0.077,north-northeast,1.4,Yes
2022/05/22,06:20,0.147,0.138,0.212,0.210,0.213,0.119,0.077,north,2.9,Yes
2022/05/22,06:30,0.147,0.137,0.213,0.209,0.213,0.120,0.076,north,3.1,No
2022/05/22,06:40,0.148,0.138,0.212,0.210,0.212,0.119,0.076,north,2.9,No
2022/05/22,06:50,0.146,0.137,0.214,0.209,0.214,0.119,0.077,north-northwest,3.4,Yes
2022/05/22,07:00,0.148,0.137,0.212,0.210,0.211,0.119,0.077,north-northwest,3.8,Yes
2022/05/22,07:10,0.148,0.138,0.214,0.209,0.213,0.118,0.076,north-northwest,4.1,Yes
2022/05/22,07:20,0.148,0.138,0.212,0.210,0.212,0.118,0.076,north-northwest,4.1,No
2022/05/22,07:30,0.147,0.138,0.214,0.209,0.213,0.119,0.075,north-northwest,4.1,Yes
2022/05/22,07:40,0.147,0.138,0.212,0.210,0.212,0.119,0.076,north-northwest,3.7,Yes
2022/05/22,07:50,0.147,0.139,0.213,0.208,0.213,0.119,0.077,north-northwest,5.0,Yes
2022/05/22,08:00,0.147,0.138,0.213,0.211,0.213,0.120,0.076,north-northwest,4.3,Yes
2022/05/22,08:10,0.148,0.138,0.214,0.209,0.214,0.119,0.076,north,4.6,Yes
2022/05/22,08:20,0.148,0.137,0.214,0.211,0.212,0.118,0.076,north-northwest,4.7,Yes
2022/05/22,08:30,0.147,0.138,0.213,0.211,0.214,0.119,0.075,north-northwest,5.4,Yes
2022/05/22,08:40,0.148,0.137,0.214,0.210,0.211,0.119,0.075,north,5.0,Yes
2022/05/22,08:50,0.147,0.138,0.212,0.209,0.214,0.119,0.076,north,5.1,Yes
2022/05/22,09:00,0.147,0.138,0.213,0.211,0.212,0.119,0.076,north-northwest,5.1,Yes
2022/05/22,09:10,0.148,0.138,0.213,0.210,0.213,0.119,0.076,north,4.8,Yes
2022/05/22,09:20,0.148,0.138,0.214,0.210,0.212,0.119,0.076,north-northwest,4.0,Yes
2022/05/22,09:30,0.147,0.137,0.212,0.208,0.213,0.119,0.077,north-northeast,5.3,Yes
2022/05/22,09:40,0.147,0.138,0.214,0.209,0.212,0.120,0.076,north-northeast,5.1,Yes
2022/05/22,09:50,0.147,0.138,0.212,0.209,0.213,0.120,0.077,north-northeast,5.3,Yes
2022/05/22,10:00,0.148,0.138,0.213,0.210,0.212,0.119,0.078,north,4.1,Yes
2022/05/22,10:10,0.148,0.138,0.212,0.210,0.213,0.120,0.077,north,4.3,Yes
2022/05/22,10:20,0.148,0.138,0.213,0.210,0.212,0.119,0.077,north,4.5,Yes
2022/05/22,10:30,0.147,0.137,0.213,0.209,0.212,0.119,0.077,north,4.3,Yes
2022/05/22,10:40,0.148,0.138,0.213,0.209,0.212,0.119,0.077,north,4.4,Yes
2022/05/22,10:50,0.147,0.138,0.212,0.209,0.212,0.120,0.077,north-northeast,4.6,Yes
2022/05/22,11:00,0.147,0.137,0.212,0.209,0.213,0.119,0.076,north,4.8,Yes
2022/05/22,11:10,0.146,0.138,0.212,0.209,0.211,0.119,0.076,north,4.7,Yes
2022/05/22,11:20,0.147,0.137,0.212,0.206,0.211,0.118,0.076,north-northwest,4.4,Yes
2022/05/22,11:30,0.146,0.139,0.213,0.208,0.211,0.119,0.077,north,4.2,Yes
2022/05/22,11:40,0.147,0.137,0.211,0.207,0.212,0.119,0.076,north,5.2,Yes
2022/05/22,11:50,0.146,0.138,0.213,0.209,0.211,0.118,0.077,north,5.0,Yes
2022/05/22,12:00,0.147,0.137,0.211,0.207,0.212,0.118,0.076,north-northwest,4.9,Yes
2022/05/22,12:10,0.147,0.138,0.212,0.207,0.213,0.118,0.076,north,5.5,Yes
2022/05/22,12:20,0.147,0.137,0.212,0.206,0.214,0.118,0.075,north,5.7,Yes
2022/05/22,12:30,0.146,0.138,0.213,0.207,0.211,0.118,0.077,north,5.0,Yes
2022/05/22,12:40,0.146,0.137,0.212,0.206,0.213,0.117,0.076,north-northeast,5.1,Yes
2022/05/22,12:50,0.146,0.137,0.212,0.209,0.211,0.119,0.076,northeast,4.3,Yes
2022/05/22,13:00,0.146,0.138,0.212,0.206,0.212,0.118,0.076,north-northeast,4.6,Yes
2022/05/22,13:10,0.148,0.138,0.212,0.208,0.210,0.119,0.076,north,4.9,Yes
2022/05/22,13:20,0.147,0.138,0.212,0.206,0.213,0.118,0.076,north,4.1,Yes
2022/05/22,13:30,0.147,0.137,0.212,0.208,0.211,0.118,0.077,north-northwest,5.0,Yes
2022/05/22,13:40,0.146,0.138,0.211,0.207,0.213,0.118,0.076,north-northwest,5.0,Yes
2022/05/22,13:50,0.147,0.137,0.212,0.207,0.211,0.118,0.077,north-northwest,5.2,Yes
2022/05/22,14:00,0.146,0.137,0.212,0.206,0.214,0.117,0.075,north-northwest,5.3,Yes
2022/05/22,14:10,0.147,0.137,0.210,0.209,0.211,0.118,0.075,north-northwest,5.9,Yes
2022/05/22,14:20,0.146,0.138,0.212,0.206,0.212,0.117,0.076,north-northwest,5.9,Yes
2022/05/22,14:30,0.146,0.137,0.211,0.208,0.210,0.117,0.076,north-northwest,5.6,Yes
2022/05/22,14:40,0.147,0.138,0.212,0.207,0.214,0.118,0.076,north-northwest,6.1,Yes
2022/05/22,14:50,0.147,0.137,0.211,0.208,0.210,0.118,0.076,north-northwest,4.6,Yes
2022/05/22,15:00,0.146,0.138,0.213,0.206,0.212,0.117,0.074,north-northwest,4.8,Yes
2022/05/22,15:10,0.147,0.138,0.211,0.207,0.211,0.118,0.075,north-northwest,4.7,Yes
2022/05/22,15:20,0.146,0.138,0.213,0.206,0.213,0.118,0.075,north,4.6,Yes
2022/05/22,15:30,0.147,0.138,0.212,0.208,0.212,0.117,0.076,north-northwest,5.1,No
2022/05/22,15:40,0.147,0.138,0.211,0.206,0.211,0.117,0.076,north-northwest,4.6,Yes
2022/05/22,15:50,0.147,0.137,0.212,0.208,0.212,0.118,0.075,north-northwest,4.9,Yes
2022/05/22,16:00,0.147,0.137,0.212,0.205,0.210,0.118,0.075,north-northwest,4.9,Yes
2022/05/22,16:10,0.146,0.137,0.212,0.208,0.212,0.118,0.075,north-northwest,5.0,Yes
2022/05/22,16:20,0.147,0.137,0.211,0.207,0.212,0.117,0.075,north-northwest,4.7,No
2022/05/22,16:30,0.147,0.138,0.212,0.208,0.212,0.117,0.075,north-northwest,4.9,No
2022/05/22,16:40,0.147,0.136,0.212,0.207,0.211,0.118,0.074,north-northwest,4.4,No
2022/05/22,16:50,0.147,0.137,0.212,0.208,0.213,0.118,0.075,north-northwest,5.0,No
2022/05/22,17:00,0.147,0.137,0.212,0.207,0.210,0.117,0.074,north-northwest,4.2,No
2022/05/22,17:10,0.146,0.137,0.213,0.208,0.212,0.118,0.075,north,3.3,No
2022/05/22,17:20,0.147,0.137,0.212,0.207,0.210,0.117,0.075,north,4.9,Yes
2022/05/22,17:30,0.146,0.137,0.213,0.208,0.213,0.118,0.075,north-northwest,4.0,No
2022/05/22,17:40,0.146,0.137,0.211,0.207,0.211,0.117,0.076,north,3.9,No
2022/05/22,17:50,0.147,0.137,0.213,0.207,0.211,0.118,0.075,north-northwest,5.3,No
2022/05/22,18:00,0.147,0.137,0.211,0.207,0.211,0.117,0.076,north-northwest,6.5,Yes
2022/05/22,18:10,0.147,0.138,0.213,0.209,0.213,0.118,0.075,north-northwest,5.5,No
2022/05/22,18:20,0.147,0.137,0.213,0.207,0.211,0.117,0.075,north-northwest,5.1,No
2022/05/22,18:30,0.147,0.137,0.212,0.207,0.214,0.118,0.075,north,5.2,No
2022/05/22,18:40,0.148,0.138,0.213,0.207,0.211,0.117,0.075,north-northwest,5.7,No
2022/05/22,18:50,0.147,0.138,0.212,0.208,0.212,0.118,0.075,north-northwest,5.4,No
2022/05/22,19:00,0.147,0.138,0.213,0.209,0.211,0.117,0.075,north-northwest,4.7,No
2022/05/22,19:10,0.147,0.136,0.213,0.207,0.213,0.118,0.076,north,5.2,No
2022/05/22,19:20,0.148,0.137,0.214,0.209,0.210,0.118,0.075,north,5.3,Yes
2022/05/22,19:30,0.148,0.138,0.213,0.206,0.214,0.118,0.075,north,5.0,Yes
2022/05/22,19:40,0.147,0.138,0.213,0.209,0.211,0.117,0.076,north,6.4,Yes
2022/05/22,19:50,0.148,0.137,0.212,0.208,0.213,0.118,0.075,north-northwest,6.9,Yes
2022/05/22,20:00,0.147,0.138,0.212,0.208,0.212,0.118,0.076,north-northwest,5.4,No
2022/05/22,20:10,0.148,0.138,0.214,0.208,0.213,0.118,0.076,north-northwest,6.3,No
2022/05/22,20:20,0.148,0.137,0.212,0.207,0.211,0.118,0.075,north-northwest,5.7,No
2022/05/22,20:30,0.147,0.138,0.213,0.209,0.213,0.118,0.076,northwest,4.9,No
2022/05/22,20:40,0.145,0.138,0.215,0.208,0.212,0.118,0.076,northwest,5.2,No
2022/05/22,20:50,0.148,0.137,0.213,0.209,0.212,0.118,0.076,northwest,5.3,No
2022/05/22,21:00,0.146,0.138,0.214,0.206,0.213,0.118,0.075,northwest,5.6,No
2022/05/22,21:10,0.146,0.138,0.213,0.209,0.212,0.117,0.076,north-northwest,6.4,No
2022/05/22,21:20,0.148,0.138,0.213,0.208,0.213,0.118,0.075,north-northwest,6.6,No
2022/05/22,21:30,0.147,0.138,0.212,0.208,0.211,0.117,0.076,north-northwest,7.2,No
2022/05/22,21:40,0.147,0.138,0.212,0.209,0.212,0.118,0.076,north-northwest,6.6,No
2022/05/22,21:50,0.148,0.138,0.213,0.208,0.213,0.117,0.076,north-northwest,6.0,No
2022/05/22,22:00,0.148,0.137,0.213,0.208,0.211,0.117,0.076,north-northwest,5.0,No
2022/05/22,22:10,0.147,0.138,0.213,0.208,0.212,0.118,0.076,northwest,5.1,No
2022/05/22,22:20,0.148,0.138,0.214,0.209,0.211,0.117,0.076,north-northwest,5.5,No
2022/05/22,22:30,0.148,0.137,0.213,0.208,0.213,0.117,0.075,north-northwest,4.9,No
2022/05/22,22:40,0.147,0.138,0.214,0.208,0.211,0.118,0.076,north-northwest,5.3,No
2022/05/22,22:50,0.148,0.137,0.213,0.207,0.212,0.118,0.076,north-northwest,5.5,No
2022/05/22,23:00,0.147,0.138,0.212,0.208,0.213,0.119,0.076,northwest,5.7,No
2022/05/22,23:10,0.148,0.138,0.213,0.208,0.211,0.119,0.076,northwest,6.5,No
2022/05/22,23:20,0.147,0.138,0.213,0.208,0.213,0.119,0.076,northwest,6.8,No
2022/05/22,23:30,0.147,0.138,0.213,0.209,0.212,0.118,0.077,northwest,7.3,No
2022/05/22,23:40,0.148,0.137,0.214,0.207,0.213,0.118,0.076,northwest,6.5,No
2022/05/22,23:50,0.148,0.138,0.214,0.208,0.213,0.118,0.077,northwest,6.7,No
